Content
SEND FEEDBACK

Daily
Averages
Monthly
Summary
Mexico

BUENA VISTA, QUINTANA ROO


Home > North America > Mexico > Quintana Roo
Elevation: 66 feet     Latitude: 18 55N     Longitude: 088 17W

WEATHER
 
SELECT A DAY
Number of Records: 125,012;   Date Range: 1/1/95 - 10/29/14
 
SHARE

PRINT THIS DATA

[ ← Previous Day ]
WEATHER ALMANAC - AUGUST 25, 2014
[ Next Day → ]
[ °C ]   °F
Weather ElementAverageHighLow
Temperature88.3 °F101 °F (3:50 pm)76 °F (6:50 am)
Dewpoint75.5 °F79 °F (12:50 am)69.8 °F (6:50 am)
Humidity65.1 %90 % (6:50 am)28 % (3:50 pm)
Barometer29.81 in29.88 in (4:45 pm)29.73 in (5:51 pm)
Wind Speed3.5 mph11.5 mph (12:49 pm)
Weather ElementAverage
Visibility6.5 mi
Wind DirectionENE (82.9 °)

Weather ElementTotal
Precipitation---
Cooling Degree Days23.5 (Base 65)
Growing Degree Days38.5 (Base 50)
Averaged from 24 records on August 25, 2014
WEATHER CONDITIONS BREAKOUT
WIND DIRECTION BREAKOUT
WEATHER BY HOUR - AUGUST 25, 2014
[ °C ]   °F
Local TimeTemperatureDewpointHumidityBarometerVisibilityWind DirectionWind SpeedGust SpeedPrecipitationEventsConditions
12:50 AM85.0 °F79.0 °F79 %29.88 in5.0 miEast (80°)4.5 mphPartly Cloudy
3:50 AM80.0 °F77.0 °F87 %29.84 in5.0 miNW (310°)4.5 mphScattered Clouds
6:50 AM76.0 °F74.0 °F90 %29.85 in6.0 miNW (320°)4.5 mphClear
6:58 AM77.0 °F69.8 °F78 %29.84 in7.0 miCalmClear
7:43 AM78.8 °F71.6 °F78 %29.84 in7.0 miCalmClear
8:40 AM80.6 °F73.4 °F79 %29.86 in7.0 miCalmClear
9:42 AM84.2 °F75.2 °F74 %29.87 in7.0 miCalmMostly Cloudy
9:50 AM90.0 °F76.0 °F55 %29.88 in6.0 miNNW (330°)6.7 mphMostly Cloudy
10:42 AM86.0 °F75.2 °F70 %29.85 in7.0 miNorth (10°)6.9 mphMostly Cloudy
11:41 AM89.6 °F75.2 °F62 %29.85 in7.0 miCalmMostly Cloudy
12:43 PM91.4 °F75.2 °F59 %29.84 in7.0 miNorth (10°)6.9 mphMostly Cloudy
12:50 PM100.0 °F72.0 °F32 %29.84 in6.0 miESE (110°)6.7 mphMostly Cloudy
1:40 PM93.2 °F75.2 °F56 %29.80 in7.0 miCalmMostly Cloudy
2:40 PM93.2 °F77.0 °F59 %29.77 in7.0 miCalmScattered Clouds
3:47 PM96.8 °F77.0 °F53 %29.75 in7.0 miCalmScattered Clouds
3:50 PM101.0 °F71.0 °F28 %29.76 in6.0 miNorth (350°)4.5 mphScattered Clouds
4:47 PM95.0 °F78.8 °F59 %29.74 in7.0 miCalmScattered Clouds
5:51 PM91.4 °F77.0 °F63 %29.73 in7.0 miCalmScattered Clouds
6:43 PM89.6 °F77.0 °F66 %29.75 in7.0 miCalmScattered Clouds
6:50 PM90.0 °F78.0 °F60 %29.77 in6.0 miESE (110°)6.7 mphScattered Clouds
7:41 PM87.8 °F77.0 °F70 %29.77 in7.0 miEast (90°)11.5 mphScattered Clouds
8:47 PM87.8 °F77.0 °F70 %29.80 in7.0 miEast (90°)6.9 mphScattered Clouds
9:48 PM86.0 °F77.0 °F74 %29.83 in7.0 miEast (90°)6.9 mphScattered Clouds
9:50 PM88.0 °F76.0 °F61 %29.84 in5.0 miEast (90°)6.7 mphPartly Cloudy
Hourly data recorded from MMCM, located miles away from Buena Vista, Quintana Roo







STORIES FROM OUR PARTNERS